When you browse on this site, cookies collect data to enhance your experience and personalize the content and advertising you see.
Visit our Privacy Policy to learn more. By continuing to use the site, you agree to this use of cookies and data.
  • In United Kingdom
  • List of Countries
  • For 7 days
  • Water Temperature
  • Satellite Maps
  • Weather Map
  • Weather Widgets
  • user-avatar
    Login

    Hourly Weather Klagenfurt

    Today, 21 April, Sunday

    Time Temperature Precipitation Wind Pressure Humidity
    00:00 +6°C° 0 mm 0 mps 695 mmHg 72%
    01:00 +6°C° 0 mm 0 mps 695 mmHg 72%
    02:00 +5°C° 0 mm 0 mps 694 mmHg 73%
    03:00 +5°C° 0 mm 0 mps 694 mmHg 73%
    04:00 +5°C° 0 mm 0 mps 694 mmHg 74%
    05:00 +6°C° 0 mm 0 mps 694 mmHg 70%
    06:00 +8°C° 0 mm 0 mps 694 mmHg 66%
    07:00 +9°C° 0 mm 0 mps 694 mmHg 62%
    08:00 +12°C° 0 mm 0 mps 694 mmHg 54%
    09:00 +15°C° 0 mm 1 mps 694 mmHg 46%
    10:00 +19°C° 0 mm 1 mps 694 mmHg 38%
    11:00 +20°C° 0 mm 1 mps 694 mmHg 37%
    12:00 +20°C° 0 mm 1 mps 694 mmHg 35%
    13:00 +21°C° 0 mm 1 mps 694 mmHg 33%
    14:00 +21°C° 0 mm 1 mps 693 mmHg 35%
    15:00 +19°C° 0 mm 2 mps 693 mmHg 36%
    16:00 +19°C° 0 mm 2 mps 692 mmHg 38%
    17:00 +16°C° 0 mm 2 mps 692 mmHg 48%
    18:00 +14°C° 0 mm 1 mps 691 mmHg 58%
    19:00 +11°C° 0 mm 1 mps 691 mmHg 68%
    20:00 +10°C° 0 mm 1 mps 691 mmHg 71%
    21:00 +9°C° 0 mm 1 mps 691 mmHg 75%
    22:00 +8°C° 0 mm 1 mps 691 mmHg 79%
    23:00 +7°C° 0 mm 1 mps 690 mmHg 77%

    Tomorrow, 22 April, Monday

    Time Temperature Precipitation Wind Pressure Humidity
    00:00 +7°C° 0 mm 1 mps 690 mmHg 76%
    01:00 +6°C° 0 mm 1 mps 690 mmHg 75%
    02:00 +6°C° 0 mm 1 mps 689 mmHg 74%
    03:00 +6°C° 0 mm 1 mps 689 mmHg 73%
    04:00 +5°C° 0 mm 1 mps 688 mmHg 72%
    05:00 +6°C° 0 mm 1 mps 688 mmHg 68%
    06:00 +8°C° 0 mm 1 mps 688 mmHg 64%
    07:00 +9°C° 0 mm 1 mps 688 mmHg 60%
    08:00 +11°C° 0 mm 1 mps 688 mmHg 53%
    09:00 +14°C° 0 mm 1 mps 688 mmHg 47%
    10:00 +16°C° 0 mm 2 mps 688 mmHg 40%
    11:00 +17°C° 0 mm 2 mps 688 mmHg 40%
    12:00 +18°C° 0 mm 2 mps 687 mmHg 39%
    13:00 +18°C° 0 mm 2 mps 687 mmHg 38%
    14:00 +18°C° 0 mm 2 mps 686 mmHg 42%
    15:00 +17°C° 0 mm 2 mps 686 mmHg 45%
    16:00 +17°C° 0 mm 3 mps 685 mmHg 49%
    17:00 +15°C° 0 mm 2 mps 684 mmHg 59%
    18:00 +12°C° 0 mm 2 mps 684 mmHg 69%
    19:00 +10°C° 0 mm 1 mps 683 mmHg 79%
    20:00 +10°C° 0 mm 1 mps 683 mmHg 81%
    21:00 +9°C° 0 mm 1 mps 684 mmHg 82%
    22:00 +9°C° 0 mm 1 mps 684 mmHg 84%
    23:00 +9°C° 0 mm 1 mps 683 mmHg 83%

    Day after tomorrow, 23 April, Tuesday

    Time Temperature Precipitation Wind Pressure Humidity
    00:00 +9°C° 0 mm 1 mps 683 mmHg 83%
    01:00 +8°C° 0 mm 0 mps 682 mmHg 82%
    02:00 +7°C° 0.6 mm 0 mps 682 mmHg 85%
    03:00 +7°C° 0.6 mm 0 mps 682 mmHg 88%
    04:00 +7°C° 0.6 mm 0 mps 681 mmHg 90%
    05:00 +7°C° 2.2 mm 0 mps 681 mmHg 92%
    06:00 +8°C° 2.2 mm 1 mps 681 mmHg 93%
    07:00 +8°C° 2.2 mm 1 mps 681 mmHg 95%
    08:00 +8°C° 1.1 mm 1 mps 681 mmHg 94%
    09:00 +8°C° 1.1 mm 1 mps 681 mmHg 93%
    10:00 +9°C° 1.1 mm 1 mps 681 mmHg 93%
    11:00 +9°C° 1 mm 1 mps 681 mmHg 92%
    12:00 +10°C° 1 mm 1 mps 681 mmHg 91%
    13:00 +10°C° 1 mm 1 mps 681 mmHg 90%
    14:00 +10°C° 0.9 mm 1 mps 681 mmHg 91%
    15:00 +11°C° 0.9 mm 1 mps 681 mmHg 91%
    16:00 +11°C° 0.9 mm 1 mps 681 mmHg 91%
    17:00 +11°C° 0.6 mm 1 mps 681 mmHg 93%
    18:00 +10°C° 0.6 mm 1 mps 681 mmHg 94%
    19:00 +10°C° 0.6 mm 1 mps 681 mmHg 96%
    20:00 +10°C° 0.6 mm 1 mps 682 mmHg 96%
    21:00 +10°C° 0.6 mm 1 mps 682 mmHg 97%
    22:00 +10°C° 0.6 mm 1 mps 683 mmHg 97%
    23:00 +10°C° 0.5 mm 1 mps 683 mmHg 97%

    24 April, Wednesday

    Time Temperature Precipitation Wind Pressure Humidity
    00:00 +10°C° 0.5 mm 1 mps 683 mmHg 97%
    01:00 +10°C° 0.5 mm 1 mps 683 mmHg 97%
    02:00 +10°C° 0.6 mm 1 mps 683 mmHg 97%
    03:00 +10°C° 0.6 mm 1 mps 683 mmHg 97%
    04:00 +9°C° 0.6 mm 2 mps 684 mmHg 97%
    05:00 +9°C° 0.7 mm 2 mps 684 mmHg 96%
    06:00 +9°C° 0.7 mm 2 mps 684 mmHg 96%
    07:00 +10°C° 0.7 mm 2 mps 685 mmHg 95%
    08:00 +10°C° 0.2 mm 2 mps 685 mmHg 92%
    09:00 +12°C° 0.2 mm 2 mps 686 mmHg 89%
    10:00 +13°C° 0.2 mm 2 mps 686 mmHg 86%
    11:00 +13°C° 0.3 mm 3 mps 687 mmHg 82%
    12:00 +14°C° 0.3 mm 3 mps 687 mmHg 78%
    13:00 +14°C° 0.3 mm 3 mps 688 mmHg 74%
    14:00 +14°C° 0.2 mm 3 mps 688 mmHg 73%
    15:00 +14°C° 0.2 mm 3 mps 688 mmHg 73%
    16:00 +14°C° 0.2 mm 3 mps 687 mmHg 72%
    17:00 +13°C° 0.2 mm 3 mps 688 mmHg 79%
    18:00 +13°C° 0.2 mm 2 mps 688 mmHg 85%
    19:00 +12°C° 0.2 mm 2 mps 688 mmHg 92%
    20:00 +12°C° 0.2 mm 2 mps 688 mmHg 93%
    21:00 +10°C° 0.2 mm 2 mps 689 mmHg 94%
    22:00 +10°C° 0.2 mm 2 mps 690 mmHg 95%
    23:00 +10°C° 0.1 mm 2 mps 690 mmHg 95%

    25 April, Thursday

    Time Temperature Precipitation Wind Pressure Humidity
    00:00 +10°C° 0.1 mm 2 mps 690 mmHg 95%
    01:00 +10°C° 0.1 mm 2 mps 690 mmHg 96%
    02:00 +11°C° 0 mm 1 mps 690 mmHg 96%
    03:00 +10°C° 0 mm 1 mps 690 mmHg 96%
    04:00 +10°C° 0 mm 1 mps 690 mmHg 96%
    05:00 +11°C° 0 mm 1 mps 690 mmHg 94%
    06:00 +10°C° 0 mm 2 mps 690 mmHg 93%
    07:00 +10°C° 0 mm 2 mps 690 mmHg 91%
    08:00 +12°C° 0.1 mm 2 mps 690 mmHg 87%
    09:00 +13°C° 0.1 mm 2 mps 690 mmHg 83%
    10:00 +13°C° 0.1 mm 3 mps 690 mmHg 79%
    11:00 +14°C° 0 mm 3 mps 690 mmHg 75%
    12:00 +16°C° 0 mm 3 mps 690 mmHg 71%
    13:00 +16°C° 0 mm 3 mps 690 mmHg 67%
    14:00 +16°C° 0.1 mm 3 mps 690 mmHg 72%
    15:00 +14°C° 0.1 mm 3 mps 690 mmHg 76%
    16:00 +13°C° 0.1 mm 3 mps 690 mmHg 81%
    17:00 +14°C° 0.1 mm 2 mps 689 mmHg 84%
    18:00 +13°C° 0.1 mm 2 mps 689 mmHg 88%
    19:00 +12°C° 0.1 mm 2 mps 689 mmHg 92%
    20:00 +12°C° 0 mm 2 mps 689 mmHg 93%
    21:00 +10°C° 0 mm 2 mps 689 mmHg 94%
    22:00 +10°C° 0 mm 2 mps 689 mmHg 96%
    23:00 +11°C° 0.1 mm 1 mps 689 mmHg 96%

    26 April, Friday

    Time Temperature Precipitation Wind Pressure Humidity
    00:00 +11°C° 0.1 mm 1 mps 689 mmHg 96%
    01:00 +11°C° 0.1 mm 1 mps 689 mmHg 96%
    02:00 +11°C° 0.1 mm 1 mps 689 mmHg 96%
    03:00 +11°C° 0.1 mm 1 mps 689 mmHg 96%
    04:00 +11°C° 0.1 mm 1 mps 688 mmHg 97%
    05:00 +11°C° 0.1 mm 1 mps 688 mmHg 95%
    06:00 +11°C° 0.1 mm 1 mps 688 mmHg 93%
    07:00 +12°C° 0.1 mm 1 mps 688 mmHg 92%
    08:00 +12°C° 0.2 mm 2 mps 688 mmHg 89%
    09:00 +13°C° 0.2 mm 2 mps 688 mmHg 86%
    10:00 +14°C° 0.2 mm 2 mps 688 mmHg 83%
    11:00 +15°C° 0.3 mm 2 mps 688 mmHg 75%
    12:00 +16°C° 0.3 mm 3 mps 688 mmHg 67%
    13:00 +17°C° 0.3 mm 3 mps 688 mmHg 59%
    14:00 +17°C° 0.2 mm 3 mps 688 mmHg 59%
    15:00 +16°C° 0.2 mm 3 mps 688 mmHg 60%
    16:00 +16°C° 0.2 mm 3 mps 688 mmHg 61%
    17:00 +13°C° 0.9 mm 3 mps 688 mmHg 70%
    18:00 +12°C° 0.9 mm 2 mps 689 mmHg 80%
    19:00 +10°C° 0.9 mm 1 mps 689 mmHg 89%
    20:00 +9°C° 2.2 mm 1 mps 689 mmHg 89%
    21:00 +7°C° 2.2 mm 2 mps 690 mmHg 88%
    22:00 +6°C° 2.2 mm 2 mps 690 mmHg 87%
    23:00 +5°C° 1.1 mm 2 mps 690 mmHg 88%
    Show more